Weather History for Provincetown, MA

Change the Weather History Date:

Friday, April 5, 2013

  Actual Average Record
Temperature  
Mean Temperature 45 °F -  
Max Temperature 51 °F 45 °F 57 °F (2011)
Min Temperature 39 °F 35 °F 28 °F (2002)
Degree Days  
Heating Degree Days 20    
Moisture  
Dew Point 36 °F    
Average Humidity 75    
Maximum Humidity 93    
Minimum Humidity 57    
Precipitation  
Precipitation 0.00 in - - ()
Sea Level Pressure  
Sea Level Pressure 29.86 in    
Wind  
Wind Speed 13 mph (SW)    
Max Wind Speed 23 mph    
Max Gust Speed 30 mph    
Visibility 10 miles    
Events      
Averages and records for this station are not official NWS values.
T = Trace of Precipitation, MM = Missing Value Source: NWS Daily Summary

Daily Weather History Graph

Daily Weather History Graph

Search for Another Location

Airport:

Trip Planner

Search our weather history database for the weather conditions in past years. The results will help you decide how hot, cold, wet, or windy it might be!

Date:

Astronomy

Apr. 05, 2013 Rise Set
Actual Time 6:16 AM EDT 7:11 PM EDT
Civil Twilight 5:48 AM EDT 7:39 PM EDT
Nautical Twilight 5:14 AM EDT 8:13 PM EDT
Astronomical Twilight 4:39 AM EDT 8:48 PM EDT
Moon 3:26 AM EDT (4/5) 2:27 PM EDT (4/5)
Length of Visible Light 13h 51m
Length of Day
12h 54m
Waning Crescent, 24% of the Moon is Illuminated
Apr 5
Waning Crescent
Apr 10
New
Apr 18
First Quarter
Apr 25
Full
May 2
Last Quarter

Hourly Weather History & Observations

Time (EDT) Temp. Windchill Dew Point Humidity Pressure Visibility Wind Dir Wind Speed Gust Speed Precip Events Conditions
12:15 AM 39.2 °F 30.2 °F 33.8 °F 81% 30.10 in 10.0 mi SW 17.3 mph 24.2 mph N/A   Clear
12:35 AM 39.2 °F 29.8 °F 33.8 °F 81% 30.09 in 10.0 mi SW 18.4 mph 23.0 mph N/A   Clear
12:55 AM 39.2 °F 29.8 °F 33.8 °F 81% 30.09 in 10.0 mi SW 18.4 mph 27.6 mph N/A   Clear
1:15 AM 39.2 °F 29.8 °F 33.8 °F 81% 30.09 in 10.0 mi SW 18.4 mph 24.2 mph N/A   Clear
1:35 AM 39.2 °F 29.8 °F 33.8 °F 81% 30.07 in 10.0 mi SW 18.4 mph 24.2 mph N/A   Clear
1:55 AM 39.2 °F 30.2 °F 33.8 °F 81% 30.06 in 10.0 mi SW 17.3 mph - N/A   Clear
2:15 AM 39.2 °F 29.8 °F 33.8 °F 81% 30.05 in 10.0 mi SW 18.4 mph 24.2 mph N/A   Clear
2:35 AM 39.2 °F 29.8 °F 33.8 °F 81% 30.05 in 10.0 mi SW 18.4 mph 24.2 mph N/A   Clear
2:55 AM 39.2 °F 29.8 °F 32.0 °F 75% 30.04 in 10.0 mi SW 18.4 mph 24.2 mph N/A   Clear
3:15 AM 39.2 °F 30.5 °F 32.0 °F 75% 30.03 in 10.0 mi SW 16.1 mph - N/A   Clear
3:55 AM 39.2 °F 31.2 °F 33.8 °F 81% 30.01 in 10.0 mi SSW 13.8 mph - N/A   Clear
4:15 AM 39.2 °F 30.5 °F 33.8 °F 81% 30.01 in 10.0 mi SW 16.1 mph 20.7 mph N/A   Clear
4:35 AM 39.2 °F 30.5 °F 35.6 °F 87% 30.01 in 10.0 mi SW 16.1 mph 21.9 mph N/A   Partly Cloudy
4:55 AM 39.2 °F 30.8 °F 35.6 °F 87% 30.00 in 10.0 mi SW 15.0 mph - N/A   Scattered Clouds
5:15 AM 41.0 °F 32.8 °F 35.6 °F 81% 30.00 in 10.0 mi SW 16.1 mph 20.7 mph N/A   Partly Cloudy
5:35 AM 41.0 °F 33.9 °F 35.6 °F 81% 29.99 in 10.0 mi SSW 12.7 mph - N/A   Scattered Clouds
5:55 AM 41.0 °F 33.5 °F 35.6 °F 81% 29.98 in 10.0 mi SW 13.8 mph - N/A   Partly Cloudy
6:15 AM 41.0 °F 34.3 °F 33.8 °F 76% 29.97 in 10.0 mi SSW 11.5 mph - N/A   Partly Cloudy
6:35 AM 41.0 °F 33.9 °F 35.6 °F 81% 29.96 in 10.0 mi SW 12.7 mph - N/A   Scattered Clouds
6:55 AM 41.0 °F 33.9 °F 33.8 °F 76% 29.97 in 10.0 mi SSW 12.7 mph - N/A   Mostly Cloudy
7:15 AM 41.0 °F 33.5 °F 33.8 °F 76% 29.98 in 10.0 mi SSW 13.8 mph - N/A   Overcast
7:35 AM 41.0 °F 34.3 °F 33.8 °F 76% 29.98 in 10.0 mi SSW 11.5 mph - N/A   Overcast
7:55 AM 41.0 °F 34.3 °F 33.8 °F 76% 29.98 in 10.0 mi SSW 11.5 mph - N/A   Overcast
8:15 AM 42.8 °F 36.2 °F 33.8 °F 70% 29.97 in 10.0 mi SSW 12.7 mph - N/A   Mostly Cloudy
8:55 AM 42.8 °F 36.6 °F 33.8 °F 70% 29.93 in 10.0 mi SSW 11.5 mph - N/A   Overcast
9:15 AM 42.8 °F 36.2 °F 33.8 °F 70% 29.93 in 10.0 mi SW 12.7 mph - N/A   Overcast
9:35 AM 42.8 °F 37.0 °F 35.6 °F 76% 29.93 in 10.0 mi SSW 10.4 mph - N/A   Overcast
9:55 AM 42.8 °F 37.0 °F 35.6 °F 76% 29.93 in 10.0 mi SSW 10.4 mph - N/A   Overcast
10:15 AM 42.8 °F 38.0 °F 37.4 °F 81% 29.92 in 10.0 mi SSW 8.1 mph - N/A   Overcast
10:35 AM 42.8 °F 37.5 °F 37.4 °F 81% 29.91 in 10.0 mi SSW 9.2 mph - N/A   Overcast
11:15 AM 42.8 °F 37.5 °F 37.4 °F 81% 29.89 in 10.0 mi SSW 9.2 mph - N/A   Overcast
11:35 AM 42.8 °F 37.5 °F 37.4 °F 81% 29.88 in 10.0 mi South 9.2 mph - N/A   Overcast
11:55 AM 42.8 °F 37.5 °F 37.4 °F 81% 29.87 in 10.0 mi SSW 9.2 mph - N/A   Overcast
12:15 PM 42.8 °F 37.5 °F 37.4 °F 81% 29.84 in 10.0 mi South 9.2 mph - N/A   Overcast
12:35 PM 42.8 °F 37.5 °F 37.4 °F 81% 29.83 in 10.0 mi South 9.2 mph - N/A   Overcast
12:55 PM 42.8 °F 38.0 °F 37.4 °F 81% 29.81 in 10.0 mi South 8.1 mph - N/A   Overcast
1:15 PM 44.6 °F 40.2 °F 39.2 °F 81% 29.79 in 10.0 mi South 8.1 mph - N/A   Overcast
1:35 PM 46.4 °F 42.9 °F 39.2 °F 76% 29.77 in 10.0 mi South 6.9 mph - N/A   Mostly Cloudy
1:55 PM 46.4 °F 44.3 °F 39.2 °F 76% 29.75 in 10.0 mi SW 4.6 mph - N/A   Overcast
2:15 PM 48.2 °F - 39.2 °F 71% 29.75 in 10.0 mi WSW 5.8 mph - N/A   Overcast
2:35 PM 48.2 °F - 39.2 °F 71% 29.74 in 10.0 mi SW 6.9 mph - N/A   Overcast
2:55 PM 48.2 °F - 37.4 °F 66% 29.70 in 10.0 mi SSE 5.8 mph - N/A   Overcast
3:15 PM 50.0 °F - 39.2 °F 66% 29.70 in 10.0 mi South 5.8 mph - N/A   Overcast
3:35 PM 51.8 °F - 37.4 °F 58% 29.68 in 10.0 mi SSE 4.6 mph - N/A   Mostly Cloudy
3:55 PM 51.8 °F - 39.2 °F 62% 29.68 in 10.0 mi SSW 4.6 mph - N/A   Partly Cloudy
4:15 PM 48.2 °F - 39.2 °F 71% 29.68 in 10.0 mi North 6.9 mph - N/A   Clear
4:35 PM 48.2 °F - 39.2 °F 71% 29.67 in 10.0 mi North 4.6 mph - N/A   Clear
4:55 PM 50.0 °F - 39.2 °F 66% 29.68 in 10.0 mi Calm Calm - N/A   Clear
5:15 PM 50.0 °F - 39.2 °F 66% 29.67 in 10.0 mi NW 3.5 mph - N/A   Clear
5:35 PM 48.2 °F - 39.2 °F 71% 29.67 in 10.0 mi WSW 4.6 mph - N/A   Clear
5:55 PM 48.2 °F - 39.2 °F 71% 29.67 in 10.0 mi SW 4.6 mph - N/A   Clear
6:15 PM 48.2 °F - 37.4 °F 66% 29.67 in 10.0 mi South 4.6 mph - N/A   Clear
6:35 PM 46.4 °F 43.5 °F 37.4 °F 71% 29.67 in 10.0 mi SSW 5.8 mph - N/A   Clear
6:55 PM 44.6 °F 42.2 °F 37.4 °F 76% 29.68 in 10.0 mi SSW 4.6 mph - N/A   Clear
7:15 PM 44.6 °F 43.1 °F 37.4 °F 76% 29.70 in 10.0 mi SW 3.5 mph - N/A   Clear
7:35 PM 39.2 °F 35.9 °F 37.4 °F 93% 29.71 in 10.0 mi SSW 4.6 mph - N/A   Clear
7:55 PM 41.0 °F 34.7 °F 37.4 °F 87% 29.73 in 10.0 mi SW 10.4 mph - N/A   Mostly Cloudy
8:15 PM 42.8 °F 38.0 °F 39.2 °F 87% 29.74 in 10.0 mi SW 8.1 mph - N/A   Overcast
8:35 PM 44.6 °F 40.2 °F 39.2 °F 81% 29.75 in 10.0 mi SW 8.1 mph - N/A   Overcast
8:55 PM 44.6 °F 41.4 °F 39.2 °F 81% 29.76 in 10.0 mi WSW 5.8 mph - N/A   Overcast
9:15 PM 46.4 °F 41.1 °F 35.6 °F 66% 29.78 in 10.0 mi NNW 11.5 mph 17.3 mph N/A   Mostly Cloudy
9:35 PM 44.6 °F 38.1 °F 35.6 °F 71% 29.78 in 10.0 mi NNW 13.8 mph - N/A   Overcast
9:55 PM 44.6 °F 38.8 °F 33.8 °F 66% 29.79 in 10.0 mi North 11.5 mph - N/A   Mostly Cloudy
10:15 PM 44.6 °F 38.4 °F 33.8 °F 66% 29.80 in 10.0 mi North 12.7 mph - N/A   Mostly Cloudy
10:35 PM 42.8 °F 36.2 °F 33.8 °F 70% 29.82 in 10.0 mi North 12.7 mph 18.4 mph N/A   Overcast
10:55 PM 44.6 °F 36.6 °F 30.2 °F 57% 29.83 in 10.0 mi NNW 19.6 mph 26.5 mph N/A   Overcast
11:15 PM 42.8 °F 33.5 °F 28.4 °F 57% 29.84 in 10.0 mi NNW 23.0 mph 29.9 mph N/A   Overcast
11:35 PM 42.8 °F 33.5 °F 28.4 °F 57% 29.86 in 10.0 mi NNW 23.0 mph 28.8 mph N/A   Mostly Cloudy
11:55 PM 41.0 °F 32.2 °F 30.2 °F 65% 29.87 in 10.0 mi NNW 18.4 mph 25.3 mph N/A   Partly Cloudy